Location: Allen Fire Department Station 4
(33.1073°N, 96.6988°W)
Time: 06:26:31
(UTC+00:00)

Cosmos 1500 Rocket - Visible Passes

Search period start: 28 June 2022 00:00
Search period end: 08 July 2022 00:00
Orbit: 604 x 630 km, 82.5° (Epoch: 27 June)

Date Brightness Start Highest point End Pass type
(mag) Time Alt. Az. Time Alt. Az. Time Alt. Az.
28 Jun 4.5 09:43:27 11° SSE 09:47:27 47° E 09:51:42 10° NNE visible
29 Jun 3.5 10:00:28 16° S 10:03:59 85° W 10:08:27 10° N visible
30 Jun 6.3 08:41:30 10° ESE 08:43:18 12° E 08:45:06 10° ENE visible
30 Jun 4.1 10:17:27 16° SW 10:20:38 41° W 10:24:51 10° N visible
01 Jul 5.6 08:57:15 15° SE 08:59:40 24° E 09:03:13 10° NE visible
01 Jul 5.0 10:34:24 12° WSW 10:37:21 22° WNW 10:40:48 10° NNW visible
02 Jul 4.4 09:14:11 28° SSE 09:16:08 46° E 09:20:24 10° NNE visible
02 Jul 5.6 10:52:42 10° W 10:54:10 11° WNW 10:55:41 10° NW visible
03 Jul 3.5 09:31:04 39° S 09:32:40 86° W 09:37:09 10° N visible
04 Jul 6.2 08:10:49 11° ESE 08:11:59 12° E 08:13:44 10° ENE visible
04 Jul 4.1 09:47:56 33° SW 09:49:19 42° W 09:53:33 10° N visible
05 Jul 5.4 08:27:39 22° ESE 08:28:22 23° E 08:31:53 10° NE visible
05 Jul 5.0 10:04:46 20° WSW 10:06:02 22° WNW 10:09:32 10° NNW visible
06 Jul 4.3 08:44:28 44° ESE 08:44:49 45° E 08:49:05 10° NNE visible
06 Jul 5.6 10:21:36 11° W 10:22:51 12° WNW 10:24:30 10° NW visible
07 Jul 3.4 09:01:16 86° SW 09:01:21 88° W 09:05:50 10° N visible
